Regional Weather Roundup
Issued by NWS

Home | Current Version | Previous Version | Text Only | Print | Product List | Glossary Off
Versions: 1 2 3 4 5 6 7 8 9 10 11 12 13 14 15 16 17 18 19 20 21 22 23 24 25 26 27 28 29 30 31 32 33 34 35 36 37 38 39 40 41 42 43 44 45 46 47 48 49 50

000
ASUS43 KMPX 020610
RWRMN
WEATHER ROUNDUP FOR MINNESOTA
NATIONAL WEATHER SERVICE TWIN CITIES/CHANHASSEN MN
100 AM CDT WED SEP 02 2015


NOTE: "FAIR" INDICATES FEW OR NO CLOUDS BELOW 12,000 FEET WITH NO
SIGNIFICANT WEATHER AND/OR OBSTRUCTIONS TO VISIBILITY. N/A MEANS
CURRENT SKY AND/OR WEATHER CONDITIONS ARE NOT AVAILABLE.

MNZ060>063-068>070-020700-
   Twin Cities Metro

CITY           SKY/WX    TMP DP  RH WIND       PRES   REMARKS
TWIN CITIES    CLOUDY    78  72  81 S5        29.92S
6HR MIN TEMP:  77; 6HR MAX TEMP:  86;

ST PAUL        MOCLDY    75  73  93 SE5       29.93R FOG
CRYSTAL        FAIR      78  72  81 S5        29.91R
BLAINE         LGT RAIN  79  75  89 S3        29.92S
LAKEVILLE      FAIR      70  70 100 CALM      29.93F FOG
EDEN PRAIRIE   LGT RAIN  77  72  84 CALM      29.91F
6HR MIN TEMP:  76; 6HR MAX TEMP:  84; 6HR PCP: TRACE;

SOUTH ST PAUL  FAIR      76  73  90 CALM      29.93S FOG
LAKE ELMO      MOCLDY    73  72  94 S7        29.95R
$$
MNZ001>005-007-008-013>017-022>024-027-028-020700-
   Northwest Minnesota

CITY           SKY/WX    TMP DP  RH WIND       PRES   REMARKS
BEMIDJI        FAIR      64  59  85 SE3       29.90S
HALLOCK        FAIR      70  54  56 SE8       29.82F
ROSEAU         FAIR      63  55  77 S6        29.86F
WARROAD        FAIR      63  57  82 S6        29.88F
THIEF RVR FALL FAIR      66  59  77 E7        29.86S
CROOKSTON      FAIR      66  61  82 SE7       29.85R
FOSSTON        FAIR      66  57  72 SE5       29.88S
DETROIT LAKES  FAIR      70  68  94 SE5       29.90S
MOORHEAD       FAIR      70  68  94 SE6       29.84F
PARK RAPIDS    FAIR      69  63  81 S5        29.91R
MAHNOMEN       FAIR      67  64  88 SE3       29.87S
$$
MNZ006-009>011-018-025>026-020700-
   North Central Minnesota

CITY           SKY/WX    TMP DP  RH WIND       PRES   REMARKS
BAUDETTE       FAIR      61  55  81 SE3       29.89F
FLAG ISLAND    FAIR      70  64  83 S7        29.86F
INTL FALLS     FAIR      53  52  96 SE5       29.91F
6HR MIN TEMP:  52; 6HR MAX TEMP:  77;

WASKISH        FAIR      61  55  82 E5        29.90S
BIG FORK       FAIR      55  54  94 CALM      29.93F
LONGVILLE      FAIR      61  61 100 CALM      29.90F
GRAND RAPIDS     N/A     66  55  68 SE5       29.92F
CRANE LAKE     FAIR      52  52 100 CALM      29.95F
ORR            FAIR      55  54  94 CALM      29.92F
COOK           FAIR      55  55 100 CALM      29.95S
WALKER         FAIR      66  64  91 CALM      29.90S
$$
MNZ012-019>021-037-020700-
   Northeast Minnesota

CITY           SKY/WX    TMP DP  RH WIND       PRES   REMARKS
DULUTH         FAIR      69  66  90 E3        29.94F
6HR MIN TEMP:  66; 6HR MAX TEMP:  79;

ELY            FAIR      55  54  94 CALM      29.96S
HIBBING        FAIR      60  58  92 CALM      29.94F
EVELETH        FAIR      59  59 100 CALM      29.96S
DULUTH HARBOR  FOG       66  64  94 NE3       29.92F VSB 1/4
TWO HARBORS    FAIR      64  61  88 CALM      29.93R
SILVER BAY     FAIR      59  57  94 CALM      29.94R
GRAND MARAIS     N/A     57  55  93 CALM      29.93S
G MARAIS ARPRT FAIR      54  48  82 N3        29.99S
$$
MNZ029>031-032-039>041-046>048-054>057-064-020700-
   West Central Minnesota

CITY           SKY/WX    TMP DP  RH WIND       PRES   REMARKS
FERGUS FALLS   FAIR      72  72 100 SE7       29.86S
WHEATON        FOG       61  61 100 SE9       29.88S VSB 1/4
MORRIS         FAIR      72  70  94 S9        29.88S FOG
ALEXANDRIA     FAIR      71  69  93 SE7       29.91S
ELBOW LAKE     FAIR      69  69  98 SE3       29.88S
WADENA         FAIR      66  66 100 CALM      29.90S FOG
GLENWOOD       FAIR      70  68  94 E3        29.91F FOG
APPLETON       FAIR      70  63  78 S9        29.88S
BENSON         FAIR      70  63  78 SW9       29.89S
ORTONVILLE     MOCLDY    68  63  83 S8        29.88R
MADISON        MOCLDY    66  64  94 SE3       29.89F
WILLMAR        CLOUDY    73  70  88 CALM      29.93R
$$
MNZ033>034-036-042>043-049>051-058-059-020700-
   Central Minnesota

CITY           SKY/WX    TMP DP  RH WIND       PRES   REMARKS
ST CLOUD       LGT RAIN  71  69  93 CALM      29.91R
6HR MIN TEMP:  69; 6HR MAX TEMP:  79; 6HR PCP:  0.01;

SAUK CENTRE    FAIR      71  69  93 CALM      29.91S
PAYNESVILLE    LGT RAIN  75  73  93 E10       29.91S
AITKIN         FAIR      73  66  78 E5        29.89F HAZE
PINE RIVER     FAIR      66  66 100 CALM      29.93F
BRAINERD       MOCLDY    74  69  85 S7        29.92R
STAPLES        FAIR      70  68  94 S3        29.91S
LONG PRAIRIE   FAIR      70  68  94 CALM      29.91F
LITTLE FALLS   FAIR      70  64  83 E3        29.92R
LITCHFIELD     LGT RAIN  75  75 100 CALM      29.92F
BUFFALO        LGT RAIN  76  71  85 SE5       29.91F
MAPLE LAKE     LGT RAIN  76  74  93 S3        29.91F
$$
MNZ037-044-045-052-053-020700-
   East Central Minnesota

CITY           SKY/WX    TMP DP  RH WIND       PRES   REMARKS
PRINCETON      LGT RAIN  75  73  94 CALM      29.91R
MORA           LGT RAIN  70  68  94 CALM      29.91F
CAMBRIDGE      LGT RAIN  77  68  73 SE3       29.90S
RUSH CITY      FAIR      73  71  93 CALM      29.92S
MOOSE LAKE     LGT RAIN  70  70 100 CALM      29.90F
HINCKLEY       MOCLDY    73  73 100 CALM      29.92F
CLOQUET        FAIR      70  66  88 CALM      29.94F
MCGREGOR       FAIR      72  70  94 E7        29.91F
$$
MNZ071>073-080-081-089-090-097-098-020700-
   Southwest Minnesota

CITY           SKY/WX    TMP DP  RH WIND       PRES   REMARKS
MONTEVIDEO     FAIR      68  66  94 SW14G21   29.91F
GRANITE FALLS  LGT RAIN  66  64  93 SE14      29.93S
CANBY          CLOUDY    67  64  89 S14       29.89F
MARSHALL       CLOUDY    68  57  68 E16G29    29.93R THUNDER
REDWOOD FALLS  TSTM      68  65  90 S28G38    29.91R FOG
OLIVIA         FAIR      68  63  83 SW7       29.92R
PIPESTONE      FAIR      66  64  94 E3        29.90S
WINDOM         MOCLDY    72  68  88 N7        29.91F
WORTHINGTON    FAIR      73  66  78 S12       29.89F
JACKSON        MOCLDY    75  70  83 S9        29.91F
TRACY          CLOUDY    68  65  89 E10       29.92S
SLAYTON        MOCLDY    67  66  99 CALM      29.92S
$$
MNZ065>067-074>077-082>085-091>093-020700-
   South Central Minnesota

CITY           SKY/WX    TMP DP  RH WIND       PRES   REMARKS
MANKATO        FAIR      73  70  88 SE7       29.92F
NEW ULM        TSTM      73  73 100 S7        29.92R
ST JAMES       TSTM      73  72  94 NW7       29.93R
FAIRMONT       MOCLDY    72  63  73 S12G20    29.92F THUNDER
GLENCOE        LGT RAIN  74  74  97 CALM      29.90F
FARIBAULT      FAIR      72  70  94 CALM      29.94F FOG
OWATONNA       FAIR      73  70  88 S6        29.95F
WASECA         FAIR      72  68  88 S5        29.96S
ALBERT LEA     FAIR      73  72  94 S6        29.96R
$$
MNZ078>079-086>088-094>096-020700-
   Southeast Minnesota

CITY           SKY/WX    TMP DP  RH WIND       PRES   REMARKS
ROCHESTER      MOCLDY    72  70  93 S9        29.98S FOG
6HR MIN TEMP:  71; 6HR MAX TEMP:  78;

RED WING       FAIR      72  70  94 CALM      29.93S FOG
STANTON        FAIR      73  70  92 S5        29.93S
DODGE CENTER   FAIR      75  72  88 S10       29.97S
WINONA         FAIR      73  72  94 CALM      29.96R
AUSTIN         FAIR      75  72  88 S5        29.97S
PRESTON        FAIR      73  69  88 S6        29.99S
$$
ABBREVIATIONS USED IN REMARKS
   TC - TEMPERATURES IN CELSIUS
  WCI - WIND CHILL INDEX
   HX - HEAT INDEX
  VSB - VISIBILITY
$$


USA.gov is the U.S. government's official web portal to all federal, state and local government web resources and services.